SCP
0 0 0 0 0 0 0 0 0 0 0 0 0 0 0 0 0 0 0 0 0 0 0 0 0 0 0 0 0 0 0 0 0 0 0 0 0 0 0 0 0 0 0 1 1 1 1 1 1
0 0 0 0 0 0 0 0 0 0 0 0 0 0 0 0 0 0 0 0 0 0 0 0 0 0 0 0 0 0 0 0 0 0 0 0 0 0 0 0 0 0 0 0 1 1 1 1 1
0 0 0 0 0 0 0 0 0 0 0 0 0 0 0 0 0 0 0 0 0 0 0 0 0 0 0 0 0 0 0 0 0 0 0 0 0 0 0 0 0 0 0 0 0 0 1 1 1
0 0 0 0 0 0 0 0 0 0 0 0 0 0 0 0 0 0 0 0 0 0 0 0 0 0 0 0 0 0 0 0 0 0 0 0 0 0 0 0 0 0 0 0 0 0 0 1 1
0 0 0 0 0 0 0 0 0 0 0 0 0 0 0 0 0 0 0 0 0 0 0 0 0 0 0 0 0 0 0 0 0 0 0 0 0 0 0 0 0 0 0 0 0 0 0 0 0
0 0 0 0 0 0 0 0 0 0 0 0 0 0 0 0 0 0 0 0 0 0 0 0 0 0 0 0 0 0 0 0 0 0 0 0 0 0 0 0 0 0 0 0 0 0 0 0 0
0 0 0 0 0 0 0 0 0 0 0 0 0 0 0 0 0 0 0 0 0 0 0 0 0 0 0 0 0 0 0 0 0 0 0 0 0 0 0 0 0 0 0 0 0 0 0 0 0
0 0 0 0 0 0 0 0 0 0 0 0 0 0 0 0 0 0 0 0 0 0 0 0 0 0 0 0 0 0 0 0 0 0 0 0 0 0 0 0 0 0 0 0 0 0 0 0 0
0 0 0 0 0 0 0 0 0 0 0 0 0 0 0 0 0 0 0 0 0 0 0 0 0 0 0 0 0 0 0 0 0 0 0 0 0 0 0 0 0 0 0 0 0 0 0 0 0
0 0 0 0 0 0 0 0 0 0 0 0 0 0 0 0 0 0 0 0 0 0 0 0 0 0 0 0 0 0 0 0 0 0 0 0 0 0 0 0 0 0 0 0 0 0 0 0 0
0 0 0 0 0 0 0 0 0 0 0 0 0 0 0 0 0 0 0 0 0 0 0 0 0 0 0 0 0 0 0 0 0 0 0 0 0 0 0 0 0 0 0 0 0 0 0 0 0
0 0 0 0 0 0 0 0 0 0 0 0 0 0 0 0 0 0 0 0 0 0 0 0 0 0 0 0 0 0 0 0 0 0 0 0 0 0 0 0 0 0 0 0 0 0 0 0 0
0 0 0 0 0 0 0 0 0 0 0 0 0 0 0 0 0 0 0 0 0 0 0 0 0 0 0 0 0 0 0 0 0 0 0 0 0 0 0 0 0 0 0 0 0 0 0 0 0
0 0 0 0 0 0 0 0 0 0 0 0 0 0 0 0 0 0 0 0 0 0 0 0 0 0 0 0 0 0 0 0 0 0 0 0 0 0 0 0 0 0 0 0 0 0 0 0 0
0 0 0 0 0 0 0 0 0 0 0 0 0 0 0 0 0 0 0 0 0 0 0 0 0 0 0 0 0 0 0 0 0 0 0 0 0 0 0 0 0 0 0 0 0 0 0 0 0
0 0 0 0 0 0 0 0 0 0 0 0 0 0 0 0 0 0 0 0 0 0 0 0 0 0 0 0 0 0 0 0 0 0 0 0 0 0 0 0 0 0 0 0 0 0 0 0 0
0 0 0 0 0 0 0 0 0 0 0 0 0 0 0 0 0 0 0 0 0 0 0 0 0 0 0 0 0 0 0 0 0 0 0 0 0 0 0 0 0 0 0 0 0 0 0 0 0
0 0 0 0 0 0 0 0 0 0 0 0 0 0 0 0 0 0 0 0 0 0 0 0 0 0 0 0 0 0 0 0 0 0 0 0 0 0 0 0 0 0 0 0 0 0 0 -0 -0
0 0 0 0 0 0 0 0 0 0 0 0 0 0 0 0 0 0 0 0 0 0 0 0 0 0 0 0 0 0 0 0 0 0 0 0 0 0 0 0 0 0 0 0 0 0 0 -0 -0
0 0 0 0 0 0 0 0 0 0 0 0 0 0 0 0 0 0 0 0 0 0 0 0 0 0 0 0 0 0 0 0 0 0 0 0 0 0 0 0 0 0 0 0 0 0 0 -0 -0
0 0 0 0 0 0 0 0 0 0 0 0 0 0 0 0 0 0 0 0 0 0 0 0 0 0 0 0 0 0 0 0 0 0 0 0 0 0 0 0 0 0 0 0 0 0 0 0 0
0 0 0 0 0 0 0 0 0 0 0 0 0 0 0 0 0 0 0 0 0 0 0 0 0 0 0 0 0 0 0 0 0 0 0 0 0 0 0 0 0 0 0 0 0 0 0 0 0
0 0 0 0 0 0 0 0 0 0 0 0 0 0 0 0 0 0 0 0 0 0 0 0 0 0 0 0 0 0 0 0 0 0 0 0 0 0 0 0 0 0 0 0 0 0 0 0 0
0 0 0 0 0 0 0 0 0 0 0 0 0 0 0 0 0 0 0 0 0 0 0 0 0 0 0 0 0 0 0 0 0 0 0 0 0 0 0 0 0 0 0 0 0 0 0 0 0
0 0 0 0 0 0 0 0 0 0 0 0 0 0 0 0 0 0 0 0 0 0 0 0 0 0 0 0 0 0 0 0 0 0 0 0 0 0 0 0 0 0 0 0 0 0 0 0 0
0 0 0 0 0 0 0 0 0 0 0 0 0 0 0 0 0 0 0 0 0 0 0 0 0 0 0 0 0 0 0 0 0 0 0 0 0 0 0 0 0 0 0 0 0 0 0 0 0
0 0 0 0 0 0 0 0 0 0 0 0 0 0 0 0 0 0 0 0 0 0 0 0 0 0 0 0 0 0 0 0 0 0 0 0 0 0 0 0 0 0 0 0 0 0 0 0 0
0 0 0 0 0 0 0 0 0 0 0 0 0 0 0 0 0 0 0 0 0 0 0 0 0 0 0 0 0 0 0 0 0 0 0 0 0 0 0 0 0 0 0 0 0 0 0 0 0
0 0 0 0 0 0 0 0 0 0 0 0 0 0 0 0 0 0 0 0 0 0 0 0 0 0 0 0 0 0 0 0 0 0 0 0 0 0 0 0 0 0 0 0 0 0 0 0 0
0 0 0 0 0 0 0 0 0 0 0 0 0 0 0 0 0 0 0 0 0 0 0 0 0 0 0 0 0 0 0 0 0 0 0 0 0 0 0 0 0 0 0 0 0 0 0 0 0
Wind_Speed
10 5 4 6 10 12 9 7 3 5 6 5 8 11 10 8 8 8 3 9 11 12 15 19 28 28 28 28 28 27 28 28 27 28 28 27 27 27 27 27 27 27 25 23 19 16 15 15 14
4 4 8 9 10 9 6 5 8 5 10 8 8 7 8 7 3 4 5 9 13 15 16 18 27 28 28 28 28 28 28 28 28 28 28 27 27 27 26 27 26 27 27 26 24 21 18 16 15
2 7 10 9 8 6 5 3 8 12 10 5 6 5 6 4 4 4 6 11 14 15 15 18 27 28 28 28 28 28 28 28 28 28 28 28 28 27 27 27 27 26 26 26 26 25 23 19 17
6 9 11 12 13 6 4 4 3 4 9 8 6 7 5 6 4 6 9 13 13 12 13 18 28 28 28 28 28 28 28 28 28 28 28 28 28 28 27 28 27 27 27 26 25 26 26 24 21
7 9 11 8 7 4 5 10 11 8 6 6 6 9 6 8 9 9 10 13 12 11 12 16 27 28 27 27 28 28 28 28 28 28 28 28 29 29 28 28 28 27 27 27 26 26 26 26 25
8 8 9 6 5 3 3 6 4 8 6 4 7 7 7 7 9 9 10 10 10 10 12 15 25 28 28 27 28 28 27 28 28 28 28 28 28 29 29 29 29 28 27 27 26 27 27 26 25
8 8 7 7 5 3 2 3 5 5 6 5 3 7 6 7 6 7 9 9 9 10 12 14 14 18 24 26 27 27 27 27 27 27 27 27 27 28 28 29 29 28 28 27 27 27 27 27 25
7 9 7 5 5 3 1 4 4 6 5 4 5 7 6 3 4 7 8 8 9 9 11 12 11 14 14 13 23 26 26 27 27 27 27 26 25 25 26 26 28 28 28 28 27 27 27 27 25
8 10 5 3 7 6 5 5 5 7 9 10 9 8 6 4 6 9 8 9 10 13 11 12 13 15 15 13 17 19 21 24 23 19 24 20 12 12 16 23 27 28 28 28 28 28 27 26 23
9 7 2 1 6 8 6 6 7 5 8 8 8 7 7 7 8 10 10 10 10 11 12 11 12 13 13 12 10 7 10 11 12 10 11 9 9 11 17 23 26 26 26 27 27 27 23 19 13
9 7 5 7 8 8 7 5 4 8 5 4 8 6 5 7 7 7 7 6 7 7 9 9 8 10 10 9 8 5 6 7 9 11 10 8 7 8 10 8 12 13 17 13 17 16 12 12 12
9 8 6 5 5 6 5 5 5 4 7 8 9 8 6 7 5 5 6 6 6 6 7 7 7 9 9 8 8 6 7 7 8 9 10 8 6 8 9 8 10 9 8 10 11 10 13 14 14
8 5 6 9 14 10 10 8 7 6 8 9 9 8 7 6 5 5 6 5 5 6 7 8 8 11 10 9 9 9 8 9 9 8 9 10 7 8 9 8 8 9 8 10 10 11 13 14 14
7 10 9 8 9 4 10 6 5 7 8 8 9 7 6 6 5 5 5 5 5 6 7 8 8 11 10 9 9 8 8 9 8 8 9 11 7 8 9 9 8 8 9 10 9 12 11 11 12
8 8 5 3 4 5 7 4 3 8 8 8 7 7 6 4 5 6 4 4 4 5 6 8 9 9 9 8 9 8 7 8 8 8 9 11 9 8 9 8 7 9 10 11 10 11 8 10 11
5 6 3 4 6 6 5 4 5 6 9 8 7 6 5 4 5 5 4 4 4 5 6 7 10 8 7 7 7 6 6 7 7 7 7 10 11 10 9 7 7 9 9 9 10 10 11 10 10
2 2 3 4 7 6 5 5 7 6 8 7 6 6 5 5 5 4 4 4 4 4 5 7 7 7 7 7 6 5 5 6 6 6 7 10 11 12 9 7 6 8 8 8 10 10 11 12 11
2 4 3 5 6 6 4 4 6 5 6 7 6 5 5 5 5 4 3 3 3 5 6 6 7 7 7 5 5 4 5 5 5 5 7 10 10 12 10 7 8 8 7 8 9 11 10 10 12
1 4 4 4 2 3 5 6 8 5 6 6 5 5 5 5 4 3 2 2 4 6 6 6 7 7 6 6 8 8 8 8 6 6 9 10 11 12 9 8 8 8 7 9 10 11 11 10 10
4 4 2 2 1 1 3 5 5 4 6 7 6 6 5 5 3 2 2 4 4 4 5 5 6 7 7 6 5 5 6 5 6 6 7 8 10 11 10 10 9 8 8 9 9 11 8 9 9
4 2 2 3 1 1 2 2 4 3 3 3 4 5 5 5 4 1 3 2 2 3 5 7 6 6 7 7 5 7 5 4 5 6 6 8 10 10 9 10 9 8 8 8 9 9 10 10 10
1 3 2 4 2 3 3 5 4 6 4 4 4 4 4 4 3 1 1 0 1 3 4 5 6 6 6 6 7 9 9 7 7 6 7 9 9 9 9 11 9 8 8 8 9 9 9 10 10
4 3 2 2 2 1 1 3 5 5 6 6 5 5 5 4 3 1 1 1 1 3 4 5 5 5 6 6 7 7 7 6 7 8 9 8 7 8 9 11 8 9 8 9 10 10 9 8 9
2 2 2 3 3 3 4 5 6 6 7 6 5 5 5 5 3 2 0 2 3 4 5 5 6 6 6 6 7 8 8 9 11 11 9 9 7 6 9 11 8 9 8 9 10 9 10 9 10
7 6 5 6 4 6 2 4 6 3 5 7 8 7 6 5 3 0 3 4 5 6 6 6 6 6 6 7 7 8 8 8 10 11 10 11 9 8 10 11 9 8 8 10 10 10 10 11 11
3 4 3 2 5 7 4 5 4 4 4 5 6 7 5 4 1 1 2 3 5 6 6 6 6 6 7 7 8 7 7 7 7 9 10 11 10 10 10 11 11 10 11 12 11 10 10 10 11
1 2 4 4 2 5 7 6 3 3 4 5 6 5 5 3 1 2 3 4 5 6 5 6 7 7 7 8 8 7 7 8 9 9 9 8 10 11 13 13 12 11 11 11 11 9 11 11 11
2 4 4 2 2 6 8 7 5 9 10 7 6 6 4 3 1 2 3 4 4 4 5 6 6 7 8 8 7 11 9 9 9 9 11 11 12 12 13 13 13 12 12 11 10 11 11 13 12
1 2 3 3 3 3 6 9 4 10 10 8 7 6 6 4 1 1 2 3 4 5 5 6 7 8 8 8 8 9 9 10 10 9 11 11 11 13 13 14 14 14 14 12 11 12 13 13 13
2 3 5 2 3 4 4 10 1 5 7 7 7 6 5 4 2 0 2 4 5 6 6 7 7 8 9 9 9 10 10 10 10 11 11 12 12 12 13 14 14 15 15 13 13 14 13 13 13
Wind_Direction
330 347 57 56 61 62 57 14 45 115 68 53 64 76 83 66 79 108 291 347 5 11 4 2 11 11 12 14 15 17 17 17 18 18 16 15 14 13 13 10 6 3 359 353 343 333 324 317 312
341 32 50 55 67 70 57 10 52 83 137 133 77 72 75 76 62 74 12 10 25 21 9 5 14 12 12 14 14 14 16 14 15 15 14 13 12 10 10 8 6 3 360 356 351 343 332 320 312
58 57 62 59 62 77 87 29 87 76 81 91 86 60 63 56 41 52 25 31 34 25 10 4 16 13 13 14 14 13 14 13 12 12 11 11 10 8 8 6 2 1 359 356 353 350 343 333 320
75 52 60 65 73 42 41 329 274 103 67 44 96 64 58 28 51 56 43 43 37 24 12 7 17 14 13 14 14 12 13 12 11 10 10 10 8 6 6 4 360 358 356 354 353 352 350 344 334
63 67 71 64 70 66 34 22 43 56 66 37 79 89 57 19 54 55 49 44 36 23 16 12 16 15 13 14 15 12 13 11 10 9 10 9 7 4 4 1 357 356 354 352 352 351 348 346 342
64 66 79 88 106 115 53 25 51 54 81 81 86 99 64 23 54 48 48 42 36 25 19 16 14 14 12 12 13 12 12 10 10 9 9 9 7 3 2 359 355 354 353 352 351 350 347 345 342
88 79 89 112 117 93 105 73 43 48 49 29 75 91 89 33 46 51 48 38 33 28 23 17 13 10 8 8 11 10 10 9 9 8 8 9 7 3 1 357 353 353 352 353 350 349 345 343 340
97 93 91 104 122 140 108 74 67 48 44 21 60 94 90 54 49 50 45 38 33 31 25 17 12 8 2 359 8 9 9 7 7 6 7 10 7 2 1 354 352 353 352 353 350 348 346 344 340
66 74 90 136 152 150 137 99 64 45 67 58 60 85 112 97 58 48 40 33 30 26 21 16 14 8 1 357 3 6 6 4 4 3 6 8 1 355 359 351 352 352 351 351 348 347 347 345 340
56 87 91 6 136 127 112 99 114 88 71 73 76 81 86 69 57 50 38 26 22 20 17 17 16 5 358 356 354 359 1 355 353 355 360 1 358 356 359 349 350 350 350 349 345 345 347 346 337
61 93 91 62 84 96 96 78 88 118 86 119 124 116 92 76 65 62 51 40 30 20 13 8 14 1 358 356 353 3 357 353 351 354 359 359 356 355 353 346 345 344 349 345 341 341 341 340 335
79 57 80 99 77 77 90 98 82 97 142 150 139 132 112 95 84 79 64 47 32 22 5 360 17 7 1 359 352 1 357 354 354 353 359 2 359 357 351 345 339 342 344 339 338 334 333 336 332
79 88 58 80 76 79 89 91 105 126 148 140 126 118 121 119 107 89 78 60 40 25 10 9 21 13 4 5 358 1 356 355 349 350 358 1 359 356 349 343 339 340 339 336 334 331 332 333 331
102 100 103 94 93 99 109 115 116 167 158 135 127 130 133 126 119 96 74 56 39 28 15 6 20 14 4 6 358 356 354 350 347 350 354 356 355 353 348 340 339 342 338 332 330 323 328 327 326
98 91 95 128 118 143 121 76 162 173 153 140 140 146 144 131 110 103 98 75 50 33 17 13 16 11 1 360 356 355 348 348 347 348 351 352 352 349 345 337 340 341 336 333 330 323 324 323 323
98 103 123 192 163 179 129 162 214 179 149 153 155 157 150 128 107 113 105 88 60 37 27 19 10 4 357 353 347 343 344 345 344 346 348 349 350 347 340 332 338 338 336 335 331 332 329 323 319
118 136 179 200 198 180 167 187 219 188 153 155 165 171 157 127 110 113 94 88 66 43 31 16 360 355 348 343 338 329 333 339 340 342 346 347 348 345 338 329 336 337 335 333 333 335 328 323 321
216 197 185 208 204 165 162 189 204 192 146 154 168 170 155 128 131 131 98 95 65 38 28 13 353 346 341 339 339 337 341 340 338 337 343 346 345 342 336 337 335 336 335 332 330 329 326 322 320
203 133 172 219 205 161 176 184 202 184 136 158 171 157 143 129 132 140 117 76 45 28 11 0 350 344 349 353 353 348 346 341 340 340 340 343 342 340 336 343 334 336 333 328 328 329 326 327 324
87 111 164 239 238 140 166 210 209 186 174 178 168 153 146 134 141 151 66 48 33 8 347 353 352 349 351 348 337 331 324 319 326 321 327 334 338 337 342 338 332 331 328 324 327 325 327 324 328
48 107 206 211 191 74 144 247 188 205 184 171 130 139 147 143 143 86 47 45 358 342 344 2 350 346 345 341 338 337 321 313 326 325 330 332 331 330 329 329 326 326 327 323 323 321 328 322 318
240 223 193 139 137 270 182 289 207 196 200 179 151 148 140 135 135 92 44 204 323 329 342 350 343 340 339 342 345 344 344 333 328 324 320 321 320 321 326 326 322 323 323 321 320 328 315 315 315
257 227 205 163 182 293 235 244 278 168 208 203 189 174 156 159 152 146 194 188 352 345 344 338 334 332 335 338 337 333 330 320 320 322 321 320 316 316 322 322 320 321 319 317 314 315 313 310 306
297 54 82 59 80 295 219 184 257 203 206 183 183 171 165 171 174 188 119 17 350 343 336 332 332 327 331 334 331 327 324 322 325 328 325 326 321 317 317 321 319 317 316 316 313 312 309 305 302
38 57 22 354 354 272 204 195 254 214 183 170 176 176 176 183 193 215 12 352 339 335 329 328 332 331 333 334 329 324 322 320 321 325 326 326 325 323 317 319 316 315 312 313 312 310 306 303 301
12 94 119 266 269 292 315 252 260 214 196 165 153 158 173 186 177 45 11 350 333 328 329 332 337 337 336 334 328 322 323 323 321 321 323 323 322 318 313 316 312 310 311 313 309 305 303 303 301
65 106 156 153 277 282 284 284 285 222 214 174 154 158 176 171 119 41 7 352 335 330 336 339 341 339 334 330 324 324 324 318 317 316 316 318 318 319 320 315 310 308 308 307 306 302 303 301 297
137 145 94 119 297 292 292 284 247 205 216 199 176 176 177 166 124 36 358 339 329 332 339 342 343 334 326 323 321 336 320 314 314 316 318 318 316 316 314 314 312 309 308 305 303 303 302 300 296
184 190 144 141 181 219 287 276 241 196 188 183 180 176 178 181 156 352 327 326 331 342 346 343 339 333 328 321 315 317 316 315 314 316 316 315 312 313 315 316 314 311 309 306 303 301 300 298 299
235 212 156 175 254 210 245 275 59 157 156 155 160 171 177 166 156 272 327 336 344 349 346 342 335 333 326 320 320 321 318 317 318 317 316 314 313 314 316 316 314 312 311 307 302 300 300 297 298